Regional Weather Roundup
Issued by NWS

Home | Current Version | Previous Version | Graphics & Text | Print | Product List | Glossary Off
Versions: 1 2 3 4 5 6 7 8 9 10 11 12 13 14 15 16 17 18 19 20 21 22 23 24 25 26 27 28 29 30 31 32 33 34 35 36 37 38 39 40 41 42 43 44 45 46 47 48 49 50

000
ASUS43 KMKX 230700
RWRWI

WISCONSIN REGIONAL WEATHER ROUNDUP
NATIONAL WEATHER SERVICE MILWAUKEE/SULLIVAN WI
200 AM CDT TUE MAY 23 2017

NOTE: "FAIR" INDICATES FEW OR NO CLOUDS BELOW 12,000 FEET WITH NO
SIGNIFICANT WEATHER AND/OR OBSTRUCTIONS TO VISIBILITY.

WIZ001-002-006>008-014>016-023>028-230800-
NORTHWEST WISCONSIN

CITY           SKY/WX    TMP DP  RH WIND       PRES   REMARKS
SUPERIOR ARPT  NOT AVBL
ASHLAND        CLOUDY    47  46  97 CALM      29.82F
HAYWARD        CLOUDY    40  38  93 CALM      29.82F
SIREN          CLOUDY    43  41  94 CALM      29.83S
CUMBERLAND     CLOUDY    45  43  93 CALM      29.82S
RICE LAKE      CLOUDY    47  46  94 CALM      29.83S
CHETEK         CLOUDY    46  46  97 MISG      29.82S
LADYSMITH      PTCLDY    42  41  96 CALM      29.83F
EAU CLAIRE     NOT AVBL
MENOMONIE      DRIZZLE   52  47  84 CALM      29.81S
NEW RICHMOND   LGT RAIN  49  46  87 CALM      29.82S
OSCEOLA        CLOUDY    48  48 100 CALM      29.85S
$$

WIZ003>005-009-010-017-018-230800-
NORTH CENTRAL WISCONSIN

CITY           SKY/WX    TMP DP  RH WIND       PRES   REMARKS
MANITOWISH WTR FOG       40  40 100 CALM      29.82S VSB 1/2
ARBOR VITAE    FOG       42  40  96 CALM      29.82S VSB 1/2
WOODRUFF       FOG       42  40  96 CALM      29.82S VSB 1/2
RHINELANDER    MOCLDY    41  39  93 CALM      29.82F
EAGLE RIVER    CLOUDY    43  43 100 CALM      29.82F FOG
LAND O LAKES   CLOUDY    44  44 100 CALM      29.84S
PHILLIPS       CLOUDY    39  39 100 CALM      29.82S
TOMAHAWK       MOCLDY    39  38  97 CALM      29.82F
MEDFORD        MOCLDY    45  42  89 E5        29.81S
MERRILL        CLOUDY    42  42 100 CALM      29.82F
$$

WIZ029-030-035-036-043>047-230800-
CENTRAL WISCONSIN

CITY           SKY/WX    TMP DP  RH WIND       PRES   REMARKS
WAUSAU         CLOUDY    49  42  77 E5        29.80S
MOSINEE        CLOUDY    46  43  87 E6        29.82S
MARSHFIELD     LGT RAIN  50  44  80 SE6       29.81R
STEVENS POINT  CLOUDY    50  44  78 E3        29.82R
WAUPACA        CLOUDY    56  47  72 E6        29.81F
WAUTOMA        LGT RAIN  55  52  88 SW6       29.80F
WISC RAPIDS    RAIN      51  50  96 SE5       29.83R FOG
CAMP DOUGLAS   CLOUDY    52  52 100 NE6       29.78F
$$

WIZ011>013-019>022-031-037>040-048>050-230800-
NORTHEAST WISCONSIN

CITY           SKY/WX    TMP DP  RH WIND       PRES   REMARKS
ANTIGO         MOCLDY    45  42  90 E7        29.83F
SHAWANO        PTCLDY    51  46  82 CALM      29.83F
OCONTO         CLOUDY    42  42  99 N3        29.83S
STURGEON BAY   CLEAR     45  44  97 E3        29.84F
GREEN BAY      CLOUDY    50  46  86 E5        29.82F
MANITOWOC      NOT AVBL
APPLETON       CLOUDY    54  43  66 E9        29.80F
CLINTONVILLE   MOCLDY    50  45  81 CALM      29.83S
OSHKOSH        MOCLDY    56  52  86 CALM      29.79F
$$

WIZ032>034-041-042-053>061-230800-
SOUTHWEST WISCONSIN

CITY           SKY/WX    TMP DP  RH WIND       PRES   REMARKS
LA CROSSE      FOG       53  53 100 CALM      29.77F VSB 3/4
SPARTA         MOCLDY    52  51  97 CALM      29.79R
VIROQUA        PTCLDY    51  51  99 MISG      29.78F
BOSCOBEL       CLOUDY    55  52  89 CALM      29.79F
PRAIRIE DU CHI MOCLDY    53  51  95 CALM      29.79F
PLATTEVILLE    MOCLDY    55  55 100 SE5       29.80F
$$

WIZ056-057-062-063-064-067-068-230800-
SOUTH CENTRAL WISCONSIN

CITY           SKY/WX    TMP DP  RH WIND       PRES   REMARKS
REEDSBURG      CLOUDY    54  54 100 CALM      29.79F
BARABOO/DELLS  CLOUDY    54  51  90 S7        29.79F
LONE ROCK      NOT AVBL
MINERAL POINT  PTCLDY    54  54 100 S3        29.80F
MADISON        CLOUDY    56  54  93 VRB3      29.79F
MIDDLETON      CLOUDY    57  54  88 SW6       29.82F
WATERTOWN      CLOUDY    56  56 100 S3        29.81F
MONROE         CLOUDY    55  54  94 S10       29.82F
JANESVILLE     CLOUDY    57  55  94 SW10      29.82F
$$

WIZ051-052-058>065-066-070>072-230800-
SOUTHEAST WISCONSIN

CITY           SKY/WX    TMP DP  RH WIND       PRES   REMARKS
MILWAUKEE      CLOUDY    59  54  83 S8        29.82F
WAUKESHA       CLOUDY    54  52  94 SW5       29.83F
MILWAUKEE/TIMM   N/A     55  50  82 SW7       29.83F
RACINE         MOCLDY    58  53  84 SW7       29.84F
KENOSHA        MOCLDY    58  53  84 SW12      29.83F
FOND DU LAC    MOCLDY    57  52  83 S7        29.79F
SHEBOYGAN      MOCLDY    53  52  96 NE3       29.81F
WEST BEND      CLOUDY    55  54  94 SW5       29.81F
JUNEAU         CLOUDY    56  54  94 S6        29.81F
$$

LSZ147-162-230800-
LAKE SUPERIOR

STATION/POSITION TIME  TEMP    WIND        PRES    WAVE
                       AIR SEA DIR/SP/G            HT/PER
                 (UTC) (F)     (DEG/KT/KT) (MB)    (FT/S)
W MID LAKE BUOY  0550   41 37  230/  4/  4 1010.2F   1
DEVILS ISLAND    0600   48     240/  7/  7 1010.2F
PORT WING        0630   46      CALM  /  3 1010.2S
SAXON HARBOR     0640   48     190/  3/  4 1009.8S
$$

LMZ867-665-643>646-230800-
LAKE MICHIGAN

STATION/POSITION TIME  TEMP    WIND        PRES    WAVE
                       AIR SEA DIR/SP/G            HT/PER
                 (UTC) (F)     (DEG/KT/KT) (MB)    (FT/S)
CHAMBERS ISLAND  0640   42      CALM  /  1 1010.2F
N MID LAKE BUOY  0550   41 39  190/  4/  4 1011.9F   3/ 5
NORTHPORT PIER   0640   46     200/  3/  5 1010.8S
SISTER BAY       0506   48     170/  6/  8   N/A
KEWAUNEE LAKESHO 0630   50      20/  3/  5 1010.0F
SHEBOYGAN LAKESH 0600   55     260/  3/  3 1009.5F
PORT WASHINGTON  0640   52      CALM  /  1 1010.5F
ATWATER BUOY     0509   57     220/  8/  8 1010.6F
MILWAUKEE LAKESH 0630   59     220/ 10/ 12   N/A
S MID LAKE BUOY  0550   50 45  220/ 10/ 12 1011.4F   1/ 3
KENOSHA   LAKESH 0600   59     220/  6/ 10 1010.5
$$

TC  - TEMPERATURE IN CELSIUS
VSB - VISIBILITY IN STATUTE MILES
WCI - WIND CHILL INDEX
HX  - HEAT INDEX




USA.gov is the U.S. government's official web portal to all federal, state and local government web resources and services.